N59BS KLNK-KERI

Flight info

Callsign N59BS
Flight time 2h 5m
Altitude 37000
Route LNK J146 GIJ J554 CRL
Aircraft C525/L-SDFGRWY/S

Departure

Time 2026-04-26 18:29
Airport Lincoln Airport (KLNK)

Arrival

Time 2026-04-26 20:34
Airport Erie International Tom Ridge Field (KERI)
Time Latitude Longitude Altitude Speed Heading
2026-04-26 18:09 40.85151 -96.74811 1194 ft 0 kts
2026-04-26 18:19 40.85152 -96.74811 1195 ft 0 kts 360°
2026-04-26 18:19 40.85158 -96.74812 1195 ft 1 kts 355°
2026-04-26 18:19 40.85168 -96.74829 1195 ft 4 kts 278°
2026-04-26 18:20 40.85141 -96.74885 1192 ft 12 kts 179°
2026-04-26 18:20 40.85035 -96.74876 1188 ft 15 kts 178°
2026-04-26 18:20 40.84966 -96.74944 1185 ft 15 kts 271°
2026-04-26 18:20 40.84965 -96.75038 1183 ft 15 kts 268°
2026-04-26 18:21 40.84938 -96.75218 1180 ft 15 kts 233°
2026-04-26 18:21 40.84858 -96.75261 1179 ft 14 kts 147°
2026-04-26 18:21 40.84769 -96.75217 1177 ft 13 kts 183°
2026-04-26 18:21 40.84714 -96.75291 1176 ft 12 kts 284°
2026-04-26 18:22 40.84767 -96.75361 1177 ft 9 kts 329°
2026-04-26 18:22 40.84809 -96.75404 1178 ft 6 kts 286°
2026-04-26 18:22 40.84829 -96.75429 1178 ft 0 kts 338°
2026-04-26 18:23 40.84830 -96.75429 1178 ft 0 kts 338°
2026-04-26 18:23 40.84835 -96.75432 1178 ft 1 kts 333°
2026-04-26 18:23 40.84856 -96.75449 1178 ft 5 kts 328°
2026-04-26 18:24 40.84895 -96.75486 1178 ft 8 kts 324°
2026-04-26 18:24 40.84952 -96.75542 1178 ft 11 kts 323°
2026-04-26 18:24 40.85027 -96.75607 1179 ft 13 kts 327°
2026-04-26 18:24 40.85112 -96.75681 1181 ft 15 kts 321°
2026-04-26 18:25 40.85200 -96.75774 1182 ft 17 kts 321°
2026-04-26 18:25 40.85302 -96.75875 1182 ft 19 kts 322°
2026-04-26 18:25 40.85412 -96.75987 1183 ft 20 kts 324°
2026-04-26 18:25 40.85527 -96.76102 1183 ft 21 kts 323°
2026-04-26 18:26 40.85638 -96.76235 1184 ft 22 kts 313°
2026-04-26 18:26 40.85740 -96.76392 1185 ft 23 kts 314°
2026-04-26 18:26 40.85871 -96.76521 1185 ft 24 kts 324°
2026-04-26 18:26 40.86016 -96.76653 1182 ft 26 kts 325°
2026-04-26 18:27 40.86168 -96.76795 1182 ft 27 kts 325°
2026-04-26 18:27 40.86323 -96.76941 1183 ft 27 kts 325°
2026-04-26 18:27 40.86491 -96.77015 1181 ft 25 kts 355°
2026-04-26 18:27 40.86654 -96.77034 1183 ft 21 kts 13°
2026-04-26 18:28 40.86665 -96.76902 1187 ft 16 kts 146°
2026-04-26 18:28 40.86476 -96.76728 1187 ft 55 kts 144°
2026-04-26 18:28 40.86026 -96.76309 1188 ft 100 kts 146°
2026-04-26 18:28 40.85350 -96.75794 1368 ft 113 kts 156°
2026-04-26 18:29 40.84586 -96.75291 1543 ft 131 kts 153°
2026-04-26 18:29 40.84193 -96.75056 1858 ft 121 kts 152°
2026-04-26 18:29 40.83456 -96.74546 2211 ft 124 kts 149°
2026-04-26 18:29 40.82609 -96.74128 2497 ft 137 kts 163°
2026-04-26 18:30 40.81640 -96.73897 2842 ft 145 kts 164°
2026-04-26 18:30 40.80703 -96.73521 3350 ft 138 kts 154°
2026-04-26 18:30 40.79757 -96.73036 3531 ft 159 kts 162°
2026-04-26 18:30 40.78661 -96.73231 4108 ft 160 kts 202°
2026-04-26 18:31 40.77882 -96.74239 4560 ft 168 kts 230°
2026-04-26 18:31 40.77161 -96.75568 4738 ft 186 kts 228°
2026-04-26 18:31 40.76450 -96.77062 4976 ft 205 kts 249°
2026-04-26 18:31 40.76553 -96.78974 5257 ft 229 kts 291°
2026-04-26 18:32 40.77641 -96.80655 5552 ft 254 kts 327°
2026-04-26 18:32 40.79346 -96.81325 5841 ft 270 kts
2026-04-26 18:32 40.81222 -96.80866 6142 ft 282 kts 20°
2026-04-26 18:32 40.83217 -96.80311 6422 ft 300 kts 10°
2026-04-26 18:33 40.85242 -96.79958 7329 ft 289 kts
2026-04-26 18:33 40.87181 -96.79647 8297 ft 276 kts
2026-04-26 18:33 40.89092 -96.79333 8950 ft 280 kts
2026-04-26 18:33 40.91053 -96.78974 9568 ft 286 kts 12°
2026-04-26 18:34 40.92796 -96.77810 10194 ft 284 kts 46°
2026-04-26 18:34 40.93845 -96.75691 10833 ft 275 kts 77°
2026-04-26 18:34 40.94065 -96.73248 11464 ft 268 kts 96°
2026-04-26 18:34 40.94075 -96.70782 11972 ft 274 kts 96°
2026-04-26 18:35 40.94117 -96.68224 12510 ft 282 kts 95°
2026-04-26 18:35 40.94232 -96.65653 13112 ft 286 kts 92°
2026-04-26 18:35 40.94414 -96.63013 13622 ft 291 kts 91°
2026-04-26 18:35 40.94651 -96.60332 14180 ft 295 kts 89°
2026-04-26 18:36 40.94924 -96.57642 14641 ft 301 kts 88°
2026-04-26 18:36 40.95227 -96.54929 15158 ft 303 kts 86°
2026-04-26 18:36 40.95556 -96.52148 15639 ft 307 kts 86°
2026-04-26 18:36 40.95904 -96.49339 16076 ft 313 kts 85°
2026-04-26 18:37 40.96262 -96.46530 16585 ft 314 kts 85°
2026-04-26 18:37 40.96629 -96.43701 17034 ft 317 kts 84°
2026-04-26 18:37 40.97009 -96.40803 17463 ft 321 kts 84°
2026-04-26 18:37 40.97397 -96.37879 17882 ft 324 kts 84°
2026-04-26 18:38 40.97787 -96.34956 18350 ft 325 kts 84°
2026-04-26 18:38 40.98182 -96.32004 18737 ft 329 kts 84°
2026-04-26 18:38 40.98578 -96.29056 19260 ft 327 kts 84°
2026-04-26 18:38 40.98977 -96.26077 19607 ft 331 kts 84°
2026-04-26 18:39 40.99383 -96.23051 19912 ft 337 kts 83°
2026-04-26 18:39 40.99789 -96.20032 20453 ft 334 kts 83°
2026-04-26 18:39 41.00195 -96.16995 20726 ft 340 kts 83°
2026-04-26 18:39 41.00611 -96.13887 21145 ft 341 kts 83°
2026-04-26 18:40 41.01018 -96.10833 21483 ft 343 kts 84°
2026-04-26 18:40 41.01438 -96.07694 21919 ft 343 kts 83°
2026-04-26 18:40 41.01851 -96.04584 22138 ft 349 kts 83°
2026-04-26 18:40 41.02270 -96.01434 22623 ft 346 kts 84°
2026-04-26 18:41 41.02687 -95.98292 22949 ft 349 kts 83°
2026-04-26 18:41 41.03100 -95.95174 23449 ft 345 kts 83°
2026-04-26 18:41 41.03516 -95.92017 23757 ft 348 kts 83°
2026-04-26 18:41 41.03927 -95.88895 24086 ft 350 kts 83°
2026-04-26 18:42 41.04348 -95.85693 24398 ft 353 kts 83°
2026-04-26 18:42 41.04768 -95.82495 24670 ft 356 kts 83°
2026-04-26 18:42 41.05187 -95.79301 25069 ft 355 kts 83°
2026-04-26 18:42 41.05609 -95.76054 25320 ft 358 kts 82°
2026-04-26 18:43 41.06035 -95.72797 25625 ft 360 kts 82°
2026-04-26 18:43 41.06453 -95.69567 25928 ft 361 kts 83°
2026-04-26 18:43 41.06880 -95.66277 26234 ft 363 kts 82°
2026-04-26 18:43 41.07305 -95.62986 26417 ft 368 kts 83°
2026-04-26 18:44 41.07733 -95.59679 26829 ft 365 kts 83°
2026-04-26 18:44 41.08164 -95.56323 27004 ft 370 kts 82°
2026-04-26 18:44 41.08593 -95.52988 27322 ft 370 kts 82°
2026-04-26 18:44 41.09025 -95.49626 27528 ft 373 kts 82°
2026-04-26 18:45 41.09456 -95.46260 28000 ft 368 kts 82°
2026-04-26 18:45 41.09882 -95.42923 28259 ft 369 kts 82°
2026-04-26 18:45 41.10304 -95.39603 28547 ft 370 kts 82°
2026-04-26 18:45 41.10734 -95.36210 28762 ft 372 kts 82°
2026-04-26 18:46 41.11157 -95.32868 29132 ft 369 kts 82°
2026-04-26 18:46 41.11579 -95.29530 29412 ft 369 kts 83°
2026-04-26 18:46 41.12002 -95.26169 29731 ft 368 kts 82°
2026-04-26 18:46 41.12424 -95.22810 29951 ft 370 kts 82°
2026-04-26 18:47 41.12844 -95.19462 30138 ft 373 kts 82°
2026-04-26 18:47 41.13262 -95.16125 30534 ft 369 kts 82°
2026-04-26 18:47 41.13681 -95.12769 30706 ft 372 kts 82°
2026-04-26 18:47 41.14101 -95.09392 30866 ft 375 kts 82°
2026-04-26 18:48 41.14523 -95.05994 31278 ft 370 kts 82°
2026-04-26 18:48 41.14945 -95.02591 31401 ft 375 kts 82°
2026-04-26 18:48 41.15363 -94.99200 31719 ft 373 kts 82°
2026-04-26 18:48 41.15776 -94.95846 31885 ft 376 kts 82°
2026-04-26 18:49 41.16202 -94.92378 32037 ft 379 kts 82°
2026-04-26 18:49 41.16621 -94.88966 32304 ft 379 kts 82°
2026-04-26 18:49 41.17040 -94.85537 32492 ft 380 kts 82°
2026-04-26 18:49 41.17461 -94.82085 32675 ft 382 kts 82°
2026-04-26 18:50 41.17884 -94.78612 32871 ft 383 kts 82°
2026-04-26 18:50 41.18306 -94.75134 33110 ft 383 kts 82°
2026-04-26 18:50 41.18729 -94.71637 33239 ft 386 kts 82°
2026-04-26 18:50 41.19158 -94.68082 33399 ft 388 kts 82°
2026-04-26 18:51 41.19581 -94.64577 33644 ft 388 kts 82°
2026-04-26 18:51 41.20006 -94.61037 33782 ft 390 kts 82°
2026-04-26 18:51 41.20431 -94.57483 33960 ft 391 kts 82°
2026-04-26 18:51 41.20853 -94.53955 34178 ft 391 kts 82°
2026-04-26 18:52 41.21281 -94.50362 34350 ft 392 kts 82°
2026-04-26 18:52 41.21704 -94.46802 34475 ft 394 kts 82°
2026-04-26 18:52 41.22130 -94.43200 34602 ft 396 kts 82°
2026-04-26 18:52 41.22555 -94.39606 34725 ft 397 kts 82°
2026-04-26 18:53 41.22980 -94.35992 34839 ft 399 kts 82°
2026-04-26 18:53 41.23410 -94.32340 34955 ft 400 kts 83°
2026-04-26 18:53 41.23832 -94.28737 35113 ft 399 kts 83°
2026-04-26 18:53 41.24263 -94.25050 35209 ft 401 kts 83°
2026-04-26 18:54 41.25112 -94.17752 35383 ft 404 kts 83°
2026-04-26 18:54 41.25531 -94.14143 35862 ft 393 kts 83°
2026-04-26 18:54 41.25946 -94.10551 35979 ft 394 kts 82°
2026-04-26 18:55 41.26360 -94.06953 36126 ft 394 kts 82°
2026-04-26 18:55 41.26775 -94.03342 36257 ft 394 kts 82°
2026-04-26 18:55 41.27181 -93.99793 36543 ft 391 kts 83°
2026-04-26 18:55 41.27592 -93.96196 36655 ft 393 kts 82°
2026-04-26 18:56 41.27996 -93.92648 36802 ft 394 kts 83°
2026-04-26 18:56 41.28407 -93.89025 36908 ft 396 kts 82°
2026-04-26 18:56 41.29231 -93.81731 36916 ft 405 kts 82°
2026-04-26 18:57 41.29927 -93.75533 36930 ft 411 kts 82°
2026-04-26 18:57 41.30912 -93.66731 36937 ft 419 kts 82°
2026-04-26 18:58 41.31767 -93.59029 36936 ft 426 kts 82°
2026-04-26 18:58 41.32631 -93.51197 36926 ft 432 kts 82°
2026-04-26 18:59 41.33500 -93.43268 36934 ft 437 kts 82°
2026-04-26 18:59 41.34376 -93.35233 36933 ft 441 kts 82°
2026-04-26 19:00 41.35248 -93.27165 36937 ft 444 kts 83°
2026-04-26 19:00 41.36123 -93.19028 36946 ft 446 kts 83°
2026-04-26 19:01 41.36997 -93.10839 36944 ft 449 kts 82°
2026-04-26 19:01 41.37867 -93.02626 36948 ft 451 kts 82°
2026-04-26 19:02 41.38734 -92.94390 36947 ft 453 kts 83°
2026-04-26 19:02 41.39455 -92.87494 36958 ft 454 kts 83°
2026-04-26 19:03 41.40462 -92.77790 36945 ft 456 kts 82°
2026-04-26 19:03 41.41320 -92.69466 36942 ft 457 kts 82°
2026-04-26 19:04 41.42179 -92.61060 36945 ft 458 kts 82°
2026-04-26 19:04 41.43028 -92.52699 36955 ft 459 kts 82°
2026-04-26 19:05 41.44300 -92.40041 36956 ft 460 kts 82°
2026-04-26 19:06 41.45133 -92.31663 36959 ft 461 kts 83°
2026-04-26 19:06 41.45967 -92.23219 36963 ft 461 kts 83°
2026-04-26 19:07 41.46794 -92.14783 36961 ft 461 kts 83°
2026-04-26 19:07 41.47616 -92.06324 36959 ft 461 kts 83°
2026-04-26 19:08 41.48433 -91.97861 36960 ft 461 kts 83°
2026-04-26 19:08 41.49239 -91.89446 36957 ft 461 kts 83°
2026-04-26 19:09 41.50043 -91.80973 36961 ft 461 kts 83°
2026-04-26 19:09 41.50837 -91.72547 36968 ft 460 kts 82°
2026-04-26 19:10 41.51630 -91.64066 36979 ft 460 kts 82°
2026-04-26 19:10 41.52060 -91.55605 36979 ft 460 kts 88°
2026-04-26 19:11 41.52232 -91.47121 36983 ft 460 kts 88°
2026-04-26 19:11 41.52396 -91.38630 36978 ft 459 kts 88°
2026-04-26 19:12 41.52560 -91.30105 36980 ft 459 kts 89°
2026-04-26 19:12 41.52720 -91.21632 36977 ft 459 kts 89°
2026-04-26 19:13 41.52877 -91.13163 36983 ft 459 kts 89°
2026-04-26 19:13 41.53028 -91.04700 36986 ft 459 kts 89°
2026-04-26 19:14 41.53175 -90.96212 36995 ft 459 kts 89°
2026-04-26 19:14 41.53315 -90.87734 37001 ft 459 kts 89°
2026-04-26 19:15 41.53450 -90.79244 37009 ft 459 kts 89°
2026-04-26 19:15 41.53579 -90.70717 37009 ft 459 kts 89°
2026-04-26 19:16 41.53700 -90.62281 37012 ft 459 kts 88°
2026-04-26 19:16 41.53817 -90.53778 37017 ft 459 kts 88°
2026-04-26 19:17 41.53926 -90.45333 37014 ft 458 kts 88°
2026-04-26 19:17 41.54029 -90.36850 37014 ft 458 kts 88°
2026-04-26 19:18 41.54126 -90.28394 37013 ft 457 kts 89°
2026-04-26 19:18 41.54217 -90.19934 37009 ft 457 kts 89°
2026-04-26 19:19 41.54301 -90.11529 37012 ft 456 kts 89°
2026-04-26 19:19 41.54379 -90.03037 37008 ft 457 kts 89°
2026-04-26 19:20 41.54451 -89.94625 37018 ft 456 kts 89°
2026-04-26 19:20 41.54517 -89.86209 37018 ft 456 kts 89°
2026-04-26 19:21 41.54577 -89.77750 37022 ft 456 kts 89°
2026-04-26 19:21 41.54630 -89.69333 37025 ft 456 kts 89°
2026-04-26 19:22 41.54678 -89.60904 37019 ft 457 kts 89°
2026-04-26 19:22 41.54719 -89.52420 37025 ft 457 kts 89°
2026-04-26 19:23 41.54754 -89.44025 37028 ft 457 kts 88°
2026-04-26 19:23 41.54783 -89.35572 37031 ft 457 kts 89°
2026-04-26 19:24 41.54805 -89.27102 37036 ft 456 kts 89°
2026-04-26 19:24 41.54827 -89.14492 37041 ft 456 kts 89°
2026-04-26 19:25 41.54834 -89.07456 37043 ft 456 kts 89°
2026-04-26 19:25 41.54835 -88.97582 37047 ft 456 kts 89°
2026-04-26 19:26 41.54830 -88.89185 37047 ft 455 kts 89°
2026-04-26 19:26 41.54818 -88.80764 37046 ft 455 kts 89°
2026-04-26 19:27 41.54801 -88.72328 37049 ft 455 kts 89°
2026-04-26 19:27 41.54777 -88.63961 37058 ft 455 kts 89°
2026-04-26 19:28 41.54747 -88.55488 37060 ft 456 kts 89°
2026-04-26 19:28 41.54711 -88.47085 37062 ft 456 kts 89°
2026-04-26 19:29 41.54669 -88.38680 37067 ft 456 kts 89°
2026-04-26 19:29 41.54851 -88.30240 37087 ft 453 kts 81°
2026-04-26 19:30 41.55776 -88.21974 37080 ft 452 kts 78°
2026-04-26 19:30 41.56601 -88.15127 37072 ft 452 kts 78°
2026-04-26 19:31 41.57758 -88.05450 37079 ft 452 kts 78°
2026-04-26 19:31 41.58727 -87.97237 37075 ft 452 kts 78°
2026-04-26 19:32 41.59694 -87.88977 37080 ft 451 kts 78°
2026-04-26 19:32 41.60651 -87.80730 37086 ft 451 kts 78°
2026-04-26 19:33 41.61599 -87.72503 37089 ft 451 kts 78°
2026-04-26 19:33 41.62549 -87.64204 37091 ft 451 kts 78°
2026-04-26 19:34 41.63488 -87.55946 37090 ft 451 kts 78°
2026-04-26 19:34 41.64421 -87.47681 37095 ft 451 kts 78°
2026-04-26 19:35 41.65346 -87.39435 37092 ft 451 kts 78°
2026-04-26 19:35 41.66264 -87.31198 37100 ft 451 kts 79°
2026-04-26 19:36 41.67032 -87.24259 37101 ft 451 kts 79°
2026-04-26 19:36 41.68089 -87.14648 37096 ft 450 kts 79°
2026-04-26 19:37 41.68993 -87.06360 37100 ft 449 kts 79°
2026-04-26 19:37 41.69887 -86.98119 37108 ft 449 kts 79°
2026-04-26 19:38 41.70773 -86.89891 37117 ft 450 kts 79°
2026-04-26 19:38 41.71653 -86.81658 37121 ft 450 kts 79°
2026-04-26 19:39 41.72533 -86.73372 37120 ft 449 kts 79°
2026-04-26 19:39 41.73403 -86.65118 37115 ft 449 kts 79°
2026-04-26 19:40 41.74264 -86.56895 37117 ft 449 kts 79°
2026-04-26 19:40 41.75125 -86.48616 37117 ft 448 kts 79°
2026-04-26 19:41 41.75972 -86.40402 37115 ft 448 kts 79°
2026-04-26 19:41 41.76678 -86.33519 37112 ft 448 kts 79°
2026-04-26 19:42 41.77706 -86.23947 37110 ft 446 kts 78°
2026-04-26 19:42 41.78611 -86.15729 37113 ft 446 kts 78°
2026-04-26 19:43 41.79502 -86.07566 37118 ft 446 kts 78°
2026-04-26 19:43 41.80389 -85.99374 37113 ft 446 kts 78°
2026-04-26 19:44 41.81266 -85.91207 37112 ft 445 kts 78°
2026-04-26 19:44 41.82141 -85.82997 37114 ft 445 kts 78°
2026-04-26 19:45 41.83005 -85.74826 37116 ft 446 kts 78°
2026-04-26 19:45 41.83871 -85.66587 37127 ft 446 kts 78°
2026-04-26 19:46 41.84725 -85.58393 37129 ft 445 kts 78°
2026-04-26 19:46 41.85571 -85.50226 37123 ft 445 kts 78°
2026-04-26 19:47 41.86273 -85.43401 37125 ft 444 kts 78°
2026-04-26 19:47 41.87248 -85.33859 37128 ft 444 kts 79°
2026-04-26 19:48 41.88076 -85.25681 37126 ft 443 kts 79°
2026-04-26 19:48 41.88898 -85.17512 37130 ft 443 kts 78°
2026-04-26 19:49 41.89710 -85.09380 37134 ft 443 kts 78°
2026-04-26 19:49 41.90521 -85.01196 37140 ft 442 kts 79°
2026-04-26 19:50 41.91321 -84.93069 37136 ft 442 kts 78°
2026-04-26 19:50 41.92117 -84.84920 37138 ft 442 kts 78°
2026-04-26 19:51 41.92909 -84.76749 37139 ft 441 kts 78°
2026-04-26 19:51 41.93687 -84.68660 37145 ft 441 kts 78°
2026-04-26 19:52 41.94465 -84.60513 37151 ft 441 kts 78°
2026-04-26 19:52 41.95238 -84.52356 37157 ft 441 kts 78°
2026-04-26 19:53 41.96003 -84.44212 37158 ft 441 kts 78°
2026-04-26 19:53 41.96763 -84.36072 37152 ft 440 kts 78°
2026-04-26 19:54 41.97512 -84.27973 37146 ft 440 kts 79°
2026-04-26 19:54 41.98257 -84.19862 37155 ft 439 kts 79°
2026-04-26 19:55 41.99000 -84.11708 37157 ft 439 kts 79°
2026-04-26 19:55 41.99732 -84.03609 37166 ft 439 kts 79°
2026-04-26 19:56 42.00458 -83.95507 37165 ft 439 kts 79°
2026-04-26 19:56 42.01184 -83.87352 37167 ft 438 kts 79°
2026-04-26 19:57 42.01895 -83.79290 37165 ft 438 kts 79°
2026-04-26 19:57 42.02606 -83.71158 37170 ft 437 kts 79°
2026-04-26 19:58 42.03309 -83.63058 37173 ft 437 kts 79°
2026-04-26 19:58 42.04004 -83.54980 37172 ft 437 kts 79°
2026-04-26 19:59 42.04687 -83.46858 37175 ft 438 kts 80°
2026-04-26 19:59 42.04169 -83.38694 37184 ft 446 kts 100°
2026-04-26 20:00 42.03179 -83.34757 37187 ft 449 kts 111°
2026-04-26 20:00 42.01718 -83.31041 37186 ft 450 kts 121°
2026-04-26 20:00 41.98442 -83.23953 37186 ft 448 kts 113°
2026-04-26 20:01 41.96816 -83.15992 37177 ft 442 kts 93°
2026-04-26 20:01 41.96849 -83.07800 37173 ft 437 kts 83°
2026-04-26 20:02 41.97192 -82.99681 37159 ft 437 kts 83°
2026-04-26 20:02 41.97437 -82.92892 37151 ft 437 kts 83°
2026-04-26 20:03 41.97718 -82.83452 37151 ft 437 kts 84°
2026-04-26 20:03 41.97920 -82.75268 37150 ft 437 kts 84°
2026-04-26 20:04 41.98092 -82.67188 37153 ft 437 kts 84°
2026-04-26 20:04 41.98243 -82.59023 37161 ft 437 kts 84°
2026-04-26 20:05 41.98373 -82.50884 37170 ft 437 kts 84°
2026-04-26 20:05 41.98484 -82.42741 37168 ft 437 kts 84°
2026-04-26 20:06 41.98577 -82.34621 37168 ft 437 kts 85°
2026-04-26 20:06 41.98653 -82.26464 37175 ft 437 kts 85°
2026-04-26 20:07 41.98711 -82.18343 37176 ft 437 kts 85°
2026-04-26 20:07 41.98751 -82.10207 37179 ft 436 kts 85°
2026-04-26 20:08 41.98775 -82.02048 37179 ft 436 kts 86°
2026-04-26 20:08 41.98782 -81.93989 37177 ft 435 kts 86°
2026-04-26 20:09 41.98771 -81.85857 37178 ft 435 kts 86°
2026-04-26 20:09 41.98743 -81.77764 37177 ft 436 kts 86°
2026-04-26 20:10 41.98697 -81.69651 37175 ft 436 kts 86°
2026-04-26 20:10 41.98635 -81.61510 37171 ft 436 kts 86°
2026-04-26 20:11 41.98555 -81.53404 37173 ft 436 kts 86°
2026-04-26 20:12 41.98403 -81.41262 37174 ft 435 kts 86°
2026-04-26 20:12 41.98282 -81.33163 37162 ft 434 kts 87°
2026-04-26 20:13 41.98142 -81.25063 37155 ft 434 kts 88°
2026-04-26 20:13 41.97987 -81.17004 37161 ft 434 kts 87°
2026-04-26 20:14 41.97815 -81.08955 37163 ft 435 kts 88°
2026-04-26 20:14 41.97624 -81.00852 37164 ft 435 kts 88°
2026-04-26 20:15 41.97416 -80.92823 36737 ft 426 kts 88°
2026-04-26 20:15 41.97220 -80.88963 37096 ft 397 kts 92°
2026-04-26 20:15 41.96806 -80.85412 36948 ft 385 kts 94°
2026-04-26 20:15 41.96661 -80.81849 36467 ft 380 kts 86°
2026-04-26 20:16 41.96642 -80.78352 36030 ft 378 kts 85°
2026-04-26 20:16 41.96625 -80.74825 35587 ft 376 kts 86°
2026-04-26 20:16 41.96587 -80.71355 35146 ft 375 kts 87°
2026-04-26 20:16 41.96529 -80.67888 34651 ft 374 kts 87°
2026-04-26 20:17 41.96453 -80.64385 33955 ft 375 kts 88°
2026-04-26 20:17 41.96365 -80.60938 33207 ft 377 kts 88°
2026-04-26 20:17 41.96263 -80.57443 32445 ft 378 kts 88°
2026-04-26 20:17 41.96151 -80.53928 31683 ft 378 kts 89°
2026-04-26 20:18 41.96030 -80.50388 30915 ft 378 kts 89°
2026-04-26 20:18 41.95905 -80.46932 30157 ft 377 kts 89°
2026-04-26 20:18 41.95774 -80.43443 29387 ft 375 kts 89°
2026-04-26 20:18 41.95638 -80.39982 28617 ft 372 kts 89°
2026-04-26 20:19 41.95118 -80.36604 27821 ft 374 kts 110°
2026-04-26 20:19 41.93667 -80.33724 27057 ft 373 kts 134°
2026-04-26 20:19 41.91676 -80.31568 26313 ft 368 kts 146°
2026-04-26 20:19 41.89400 -80.30151 25536 ft 361 kts 169°
2026-04-26 20:20 41.86947 -80.30052 24779 ft 349 kts 193°
2026-04-26 20:20 41.84755 -80.31200 24046 ft 335 kts 215°
2026-04-26 20:20 41.82901 -80.32958 23328 ft 329 kts 223°
2026-04-26 20:20 41.81171 -80.34943 22608 ft 324 kts 227°
2026-04-26 20:21 41.79537 -80.36957 21895 ft 321 kts 228°
2026-04-26 20:21 41.77924 -80.39001 21181 ft 318 kts 229°
2026-04-26 20:21 41.76349 -80.41013 20467 ft 316 kts 229°
2026-04-26 20:21 41.74774 -80.43030 19764 ft 314 kts 229°
2026-04-26 20:22 41.73195 -80.45049 19055 ft 312 kts 229°
2026-04-26 20:22 41.71649 -80.47019 18362 ft 309 kts 229°
2026-04-26 20:22 41.70098 -80.48994 17661 ft 308 kts 229°
2026-04-26 20:22 41.68631 -80.50993 16950 ft 302 kts 237°
2026-04-26 20:23 41.67885 -80.53516 16249 ft 289 kts 266°
2026-04-26 20:23 41.68132 -80.56086 15546 ft 280 kts 294°
2026-04-26 20:23 41.69182 -80.58217 14868 ft 276 kts 312°
2026-04-26 20:23 41.70506 -80.60063 14170 ft 275 kts 317°
2026-04-26 20:24 41.71919 -80.61766 13476 ft 274 kts 324°
2026-04-26 20:24 41.73625 -80.62811 12791 ft 272 kts 343°
2026-04-26 20:24 41.75451 -80.63403 12098 ft 271 kts 348°
2026-04-26 20:24 41.77301 -80.63850 11406 ft 270 kts 351°
2026-04-26 20:25 41.79133 -80.64245 10715 ft 267 kts 351°
2026-04-26 20:25 41.80340 -80.64476 10255 ft 266 kts 354°
2026-04-26 20:25 41.82692 -80.63718 9344 ft 267 kts 26°
2026-04-26 20:25 41.84175 -80.62231 8494 ft 273 kts 44°
2026-04-26 20:26 41.85374 -80.60300 7919 ft 267 kts 52°
2026-04-26 20:26 41.86390 -80.58296 7726 ft 248 kts 54°
2026-04-26 20:26 41.87190 -80.56733 7567 ft 236 kts 54°
2026-04-26 20:26 41.88085 -80.55017 7280 ft 229 kts 53°
2026-04-26 20:27 41.88997 -80.53305 6940 ft 224 kts 53°
2026-04-26 20:27 41.89894 -80.51643 6641 ft 218 kts 53°
2026-04-26 20:27 41.90765 -80.50023 6372 ft 212 kts 53°
2026-04-26 20:27 41.91615 -80.48432 6100 ft 208 kts 53°
2026-04-26 20:28 41.92447 -80.46890 5833 ft 204 kts 54°
2026-04-26 20:28 41.93275 -80.45351 5565 ft 201 kts 54°
2026-04-26 20:28 41.94081 -80.43854 5292 ft 198 kts 54°
2026-04-26 20:28 41.94887 -80.42348 5034 ft 196 kts 54°
2026-04-26 20:29 41.95676 -80.40877 4773 ft 194 kts 54°
2026-04-26 20:29 41.96460 -80.39415 4519 ft 192 kts 55°
2026-04-26 20:29 41.97232 -80.37973 4268 ft 191 kts 55°
2026-04-26 20:29 41.98012 -80.36517 4013 ft 190 kts 55°
2026-04-26 20:30 41.98780 -80.35081 3765 ft 189 kts 56°
2026-04-26 20:30 41.99539 -80.33663 3518 ft 188 kts 56°
2026-04-26 20:30 42.00299 -80.32243 3269 ft 187 kts 56°
2026-04-26 20:30 42.01056 -80.30826 3022 ft 186 kts 56°
2026-04-26 20:31 42.01807 -80.29419 2773 ft 185 kts 56°
2026-04-26 20:31 42.02556 -80.28017 2525 ft 185 kts 55°
2026-04-26 20:31 42.03301 -80.26620 2262 ft 177 kts 55°
2026-04-26 20:31 42.03973 -80.25362 2030 ft 158 kts 54°
2026-04-26 20:32 42.04559 -80.24263 1908 ft 134 kts 54°
2026-04-26 20:32 42.05087 -80.23274 1674 ft 122 kts 54°
2026-04-26 20:32 42.05533 -80.22437 1527 ft 105 kts 54°
2026-04-26 20:32 42.05931 -80.21692 1397 ft 92 kts 53°
2026-04-26 20:33 42.06297 -80.21006 1295 ft 90 kts 53°
2026-04-26 20:33 42.06664 -80.20302 1209 ft 94 kts 54°
2026-04-26 20:33 42.07070 -80.19559 1103 ft 104 kts 52°
2026-04-26 20:33 42.07507 -80.18720 919 ft 115 kts 54°
2026-04-26 20:34 42.07966 -80.17871 736 ft 99 kts 53°
2026-04-26 20:34 42.08292 -80.17261 732 ft 58 kts 54°
2026-04-26 20:34 42.08431 -80.17003 732 ft 16 kts 54°
2026-04-26 20:34 42.08516 -80.17007 732 ft 14 kts 300°
2026-04-26 20:35 42.08484 -80.17135 732 ft 17 kts 234°
2026-04-26 20:35 42.08411 -80.17273 732 ft 17 kts 234°
2026-04-26 20:35 42.08341 -80.17406 732 ft 16 kts 236°
2026-04-26 20:35 42.08278 -80.17529 733 ft 15 kts 234°
2026-04-26 20:36 42.08223 -80.17638 734 ft 13 kts 234°
2026-04-26 20:36 42.08170 -80.17730 735 ft 11 kts 232°
2026-04-26 20:36 42.08126 -80.17812 735 ft 10 kts 235°
2026-04-26 20:36 42.08089 -80.17892 735 ft 9 kts 259°
2026-04-26 20:37 42.08089 -80.17981 735 ft 10 kts 272°
2026-04-26 20:37 42.08092 -80.18095 735 ft 13 kts 273°
2026-04-26 20:37 42.08096 -80.18239 735 ft 16 kts 270°
2026-04-26 20:37 42.08096 -80.18391 734 ft 16 kts 268°
2026-04-26 20:38 42.08089 -80.18487 732 ft 8 kts 274°
2026-04-26 20:38 42.08117 -80.18519 732 ft 0 kts 30°